This is the latest recevied weather packets stored in our database for station/object KC0UFP. If no packets are shown the sender has not sent any weather packets the latest 10 day(s).
| Time | Temp. | Humidity | Pressure | Rain* | Wind** | Luminosity | Snow |
|---|---|---|---|---|---|---|---|
| 1778102646 | 13.33° C | 75% | 1014.5 hPa | 0 mm | - | 107 W/m² | - |
| 1778102340 | 13.33° C | 75% | 1015 hPa | 0 mm | - | 119 W/m² | - |
| 1778102037 | 13.33° C | 76% | 1014.8 hPa | 0 mm | - | 111 W/m² | - |
| 1778101734 | 13.33° C | 73% | 1014.7 hPa | 0 mm | - | 103 W/m² | - |
| 1778101431 | 13.33° C | 73% | 1015.1 hPa | 0 mm | - | 98 W/m² | - |
| 1778101128 | 13.33° C | 72% | 1015 hPa | 0 mm | - | 88 W/m² | - |
| 1778100824 | 13.33° C | 73% | 1014.7 hPa | 0 mm | - | 111 W/m² | - |
| 1778100520 | 13.33° C | 72% | 1015.3 hPa | 0 mm | - | 180 W/m² | - |
| 1778100218 | 13.33° C | 72% | 1015 hPa | 0 mm | - | 161 W/m² | - |
| 1778099916 | 13.33° C | 73% | 1014.7 hPa | 0 mm | - | 118 W/m² | - |
| 1778099613 | 13.33° C | 72% | 1015.2 hPa | 0 mm | - | 139 W/m² | - |
| 1778099309 | 13.33° C | 71% | 1015.7 hPa | 0 mm | - | 157 W/m² | - |
| 1778099007 | 13.33° C | 74% | 1015.8 hPa | 0 mm | - | 158 W/m² | - |
| 1778098703 | 13.33° C | 73% | 1015.6 hPa | 0 mm | - | 132 W/m² | - |
| 1778098401 | 13.33° C | 73% | 1015.7 hPa | 0 mm | - | 123 W/m² | - |
| 1778098097 | 13.33° C | 71% | 1015.9 hPa | 0 mm | - | 67 W/m² | - |
| 1778097793 | 13.33° C | 70% | 1016.3 hPa | 0 mm | - | 61 W/m² | - |
| 1778097489 | 13.33° C | 73% | 1016.1 hPa | 0 mm | - | 119 W/m² | - |
| 1778097187 | 13.33° C | 71% | 1015.9 hPa | 0 mm | - | 150 W/m² | - |
| 1778096884 | 13.33° C | 70% | 1015.6 hPa | 0 mm | - | 127 W/m² | - |
| 1778096580 | 13.33° C | 73% | 1015.2 hPa | 0 mm | - | 149 W/m² | - |
| 1778096278 | 13.33° C | 73% | 1015.5 hPa | 0 mm | - | 103 W/m² | - |
| 1778095974 | 13.33° C | 71% | 1015.2 hPa | 0 mm | - | 141 W/m² | - |
| 1778095670 | 13.33° C | 70% | 1015 hPa | 0 mm | - | 136 W/m² | - |
| 1778095368 | 13.33° C | 71% | 1015.2 hPa | 0 mm | - | 167 W/m² | - |
* Rain latest hour (hover to see other rain measurements)
** Current wind speed in m/s (hover to see current wind gust speed)